[[{"header":{"parameterUnit":"m.s-1","parameterCategory":1,"la1":30.2991,"la2":30.254,"lo1":-89.0895,"lo2":-89.0444,"dy":0.0017,"dx":0.0017,"nx":28,"ny":28,"refTime":"2024-03-22T21:00:00:Z","depth":0,"parameterNumber":2,"parameterNumberName":"U-component_of_WINDS"},"data":[0,0,0,0,0,0,0,0,0,0,0,0,0,0,0,0,0,0,0,0,0,0,0,0,0,0,0,0,0,0,0,0,0,0,0,0,0,0,0,0,0,0,0,0,0,0,0,0,0,0,0,0,0,0,0,0,0,0,-1.911,-1.911,0,-1.9151,-1.9152,-1.9152,-1.9081,-1.9079,-1.9076,-1.9074,-1.9118,-1.9121,-1.9124,0,0,0,0,0,0,0,0,0,0,0,0,0,-1.8969,-1.8972,-1.911,-1.911,-1.9111,-1.9151,-1.9152,-1.9153,-1.9081,-1.9078,-1.9076,-1.9073,-1.9116,-1.9121,-1.9125,0,0,0,0,0,0,0,0,0,0,0,0,0,-1.9022,-1.8973,-1.911,-1.908,-1.9078,-1.9151,-1.9152,-1.9153,-1.9082,-1.9078,-1.9075,-1.9071,-1.9115,-1.912,-1.9125,-1.923,0,0,-1.9141,-1.9143,0,0,0,0,0,0,0,0,-1.9019,-1.9028,-1.9084,-1.9082,-1.908,-1.9107,-1.9118,-1.9178,-1.9083,-1.9081,-1.9074,-1.907,-1.9117,-1.9122,-1.9138,-1.9232,-1.9233,-1.9141,-1.9144,-1.9147,-1.9148,0,0,0,0,0,0,0,-1.9016,-1.9025,-1.9126,-1.9085,-1.9083,-1.9065,-1.9068,-1.9129,-1.9119,-1.908,-1.9075,-1.9081,-1.9115,-1.9133,-1.9138,-1.9234,-1.9141,-1.9146,-1.9149,-1.9151,-1.9415,-1.9419,0,0,0,0,0,0,-1.9016,-1.9023,-1.9125,-1.9128,-1.904,-1.907,-1.9074,-1.9102,-1.9118,-1.9117,-1.9084,-1.9078,-1.9126,-1.9132,-1.9139,-1.9263,-1.9147,-1.9151,-1.9154,-1.9411,-1.9416,-1.942,0,0,0,0,0,0,-1.9013,-1.9025,-1.9123,-1.9074,-1.9085,-1.9077,-1.9109,-1.9105,-1.9122,-1.9121,-1.9119,-1.9104,-1.9123,-1.9132,-1.9208,-1.9264,-1.9154,-1.9158,-1.9407,-1.9413,-1.9418,-1.9512,0,0,0,0,0,0,-1.9009,-1.9025,-1.9065,-1.9075,-1.9088,-1.9191,-1.9112,-1.9108,-1.9131,-1.9123,-1.9139,-1.9138,-1.9121,-1.92,-1.9213,-1.9269,-1.9162,-1.9402,-1.9409,-1.9416,-1.9504,-1.952,-1.9534,0,0,0,0,0,-1.9004,-1.909,-1.9067,-1.908,-1.9137,-1.9195,-1.9202,-1.918,-1.9136,-1.9176,-1.9175,-1.9138,-1.9255,-1.9209,-1.9222,-1.9281,-1.9398,-1.9407,-1.9416,-1.9497,-1.9517,-1.9534,0,0,0,0,0,0,-1.9087,-1.9091,-1.9066,-1.9157,-1.9176,-1.9182,-1.9232,-1.9202,-1.9235,-1.9226,-1.9198,-1.9202,-1.9283,-1.9289,-1.9237,-1.9382,-1.9319,-1.9331,-1.9376,-1.9395,-1.941,-1.9408,-1.9167,0,0,0,0,0,-1.9115,-1.9161,-1.9162,-1.9242,-1.9253,-1.9241,-1.9265,-1.9247,-1.9266,-1.9274,-1.9278,-1.9298,-1.9339,-1.9367,-1.9404,-1.9503,-1.9506,-1.9549,-1.9565,-1.9577,-1.9589,-1.9642,-1.9661,-1.9449,-1.9449,-1.9449,0,0,-1.9175,-1.9183,-1.9214,-1.9259,-1.9272,-1.932,-1.9249,-1.9303,-1.9339,-1.9282,-1.9354,-1.9357,-1.9377,-1.9465,-1.9503,-1.9472,-1.9647,-1.9589,-1.9599,-1.9603,-1.9653,-1.9673,-1.9691,-1.9455,-1.9454,-1.9453,0,0,-1.931,-1.932,-1.9388,-1.9402,-1.9422,-1.9413,-1.9429,-1.944,-1.944,-1.9511,-1.9469,-1.9511,-1.9583,-1.9599,-1.9616,-1.9755,-1.9722,-1.9768,-1.9849,-1.9901,-1.9917,-1.9932,-1.9983,-2.0001,-1.9779,-1.9779,-1.9779,0,-1.9383,-1.9454,-1.9427,-1.9485,-1.9506,-1.9455,-1.9524,-1.9539,-1.957,-1.9586,-1.955,-1.9638,-1.9648,-1.9739,-1.9772,-1.9788,-1.9806,-1.9767,-1.9917,-1.9931,-1.9945,-1.9993,-2.0012,-1.9784,-1.9784,-1.9783,-1.9783,0,-1.9543,-1.9593,-1.9645,-1.9677,-1.9703,-1.9766,-1.9749,-1.9779,-1.9758,-1.9753,-1.9825,-1.9835,-1.9874,-1.9893,-1.9873,-1.9981,-1.9961,-1.9921,-1.9858,-1.9971,-2.0016,-2.0034,-1.9792,-1.979,-1.9789,-1.9787,0,0,-1.9734,-1.9748,-1.9768,-1.9781,-1.9798,-1.9836,-1.9896,-1.9934,-1.9961,-1.9983,-2.0033,-2.0094,-2.0057,-2.0077,-2.0057,-2.0102,-2.0213,-2.0057,-2.0057,-2.0087,-2.0333,-2.0365,-2.0387,-2.019,-2.0193,-2.0196,-2.0332,0,-1.9869,-1.9973,-1.995,-2.0053,-2.0099,-2.005,-2.0102,-2.0118,-2.0114,-2.0152,-2.0148,-2.0192,-2.0139,-2.0151,-2.0193,-2.0191,-2.0262,-2.018,-2.0238,-2.024,-2.0237,-2.041,-2.0444,-2.0573,-2.0349,-2.0352,-2.0355,0,-2.0042,-2.007,-2.0178,-2.0186,-2.0205,-2.0253,-2.0285,-2.0321,-2.0338,-2.0332,-2.0354,-2.0325,-2.0384,-2.0318,-2.04,-2.0344,-2.0366,-2.0368,-2.0372,-2.0379,-2.0306,-2.0424,-2.0613,-2.0633,-2.0382,-2.0379,-2.0377,0,-2.0173,-2.0237,-2.031,-2.0323,-2.0334,-2.0369,-2.0376,-2.0388,-2.0412,-2.044,-2.0455,-2.0489,-2.0509,-2.0536,-2.0517,-2.047,-2.0602,-2.0534,-2.06,-2.06,-2.0632,-2.0631,-2.083,-2.0642,-2.0642,-2.0642,-2.0641,0,-2.0328,-2.0396,-2.0369,-2.0414,-2.0489,-2.046,-2.0535,-2.0535,-2.0547,-2.0591,-2.055,-2.0592,-2.0563,-2.0603,-2.0589,-2.0659,-2.0668,-2.0665,-2.0661,-2.067,-2.0671,-2.0686,-2.0678,-2.0647,-2.0645,-2.0645,-2.0644,0,-2.0488,-2.0473,-2.0549,-2.0553,-2.0555,-2.061,-2.0614,-2.0655,-2.0647,-2.0704,-2.0715,-2.0703,-2.0748,-2.0731,-2.0778,-2.0768,-2.0859,-2.0841,-2.0853,-2.085,-2.0917,-2.0912,-2.1135,-2.1163,-2.0955,-2.0957,-2.0959,0,-2.059,-2.0641,-2.065,-2.0676,-2.0686,-2.0729,-2.0752,-2.0725,-2.0752,-2.0774,-2.0813,-2.0854,-2.0885,-2.0959,-2.0954,-2.099,-2.0975,-2.105,-2.098,-2.0988,-2.0978,-2.0976,-2.0982,-2.1065,-2.1068,-2.107,-2.1071,0,-2.0772,-2.0761,-2.0797,-2.083,-2.086,-2.0884,-2.0906,-2.0929,-2.0903,-2.0935,-2.098,-2.1004,-2.1052,-2.1093,-2.1125,-2.1131,-2.1098,-2.1093,-2.111,-2.1122,-2.1128,-2.1127,-2.0894,-2.1089,-2.1087,-2.1086,-2.1085,-2.1084,-2.0907,-2.095,-2.0963,-2.1005,-2.1017,-2.1038,-2.1077,-2.1073,-2.111,-2.1147,-2.1128,-2.1181,-2.1194,-2.1233,-2.1244,-2.1284,-2.1255,-2.128,-2.1287,-2.1294,-2.1303,-2.1119,-2.129,-2.1289,-2.1289,-2.1288,-2.1288,0,-2.1089,-2.1094,-2.1132,-2.1163,-2.1195,-2.1159,-2.118,-2.1209,-2.1256,-2.1271,-2.1303,-2.1354,-2.1393,-2.1391,-2.1427,-2.146,-2.1445,-2.147,-2.1469,-2.1471,-2.1327,-2.1309,-2.1481,-2.1481,-2.1481,-2.1481,-2.1481,-2.1481,-2.1188,-2.1259,-2.125,-2.1327,-2.1331,-2.1382,-2.1397,-2.1416,-2.1428,-2.1487,-2.1519,-2.1517,-2.1525,-2.1561,-2.1596,-2.1594,-2.161,-2.1641,-2.1634,-2.15,-2.1481,-2.1463,-2.1446,-2.1644,-2.1645,-2.1775,-2.1776,-2.1777]},{"header":{"parameterUnit":"m.s-1","parameterCategory":1,"la1":30.2991,"la2":30.254,"lo1":-89.0895,"lo2":-89.0444,"dy":0.0017,"dx":0.0017,"nx":28,"ny":28,"refTime":"2024-03-22T21:00:00:Z","depth":0,"parameterNumber":3,"parameterNumberName":"V-component_of_WINDS"},"data":[0,0,0,0,0,0,0,0,0,0,0,0,0,0,0,0,0,0,0,0,0,0,0,0,0,0,0,0,0,0,0,0,0,0,0,0,0,0,0,0,0,0,0,0,0,0,0,0,0,0,0,0,0,0,0,0,0,0,-5.5457,-5.5458,0,-5.554,-5.5541,-5.5542,-5.5456,-5.5453,-5.5449,-5.5446,-5.5527,-5.5533,-5.5538,0,0,0,0,0,0,0,0,0,0,0,0,0,-5.522,-5.5225,-5.5457,-5.5458,-5.5459,-5.554,-5.5541,-5.5542,-5.5457,-5.5453,-5.5449,-5.5445,-5.5526,-5.5532,-5.5538,0,0,0,0,0,0,0,0,0,0,0,0,0,-5.5315,-5.5226,-5.5457,-5.5426,-5.5425,-5.554,-5.5541,-5.5543,-5.5457,-5.5452,-5.5447,-5.5443,-5.5524,-5.5531,-5.5539,-5.5688,0,0,-5.5563,-5.5567,0,0,0,0,0,0,0,0,-5.531,-5.5324,-5.543,-5.5429,-5.5427,-5.5483,-5.5487,-5.5591,-5.5459,-5.5445,-5.5446,-5.544,-5.5516,-5.5525,-5.5551,-5.5692,-5.5695,-5.5564,-5.5569,-5.5572,-5.5574,0,0,0,0,0,0,0,-5.5303,-5.532,-5.549,-5.5432,-5.543,-5.5407,-5.5415,-5.5507,-5.5507,-5.5446,-5.544,-5.5451,-5.5515,-5.5544,-5.5552,-5.5696,-5.5564,-5.5571,-5.5576,-5.5579,-5.5961,-5.5967,0,0,0,0,0,0,-5.5301,-5.5315,-5.5487,-5.5492,-5.5355,-5.5415,-5.5424,-5.547,-5.5506,-5.5507,-5.5455,-5.5447,-5.5533,-5.5543,-5.5555,-5.5731,-5.5572,-5.558,-5.5584,-5.5956,-5.5963,-5.5968,0,0,0,0,0,0,-5.5296,-5.5317,-5.5484,-5.5402,-5.5422,-5.5425,-5.5477,-5.5474,-5.5503,-5.5513,-5.5513,-5.5485,-5.5529,-5.5544,-5.5655,-5.5733,-5.5583,-5.559,-5.595,-5.5958,-5.5966,-5.6085,0,0,0,0,0,0,-5.5289,-5.5316,-5.5374,-5.5404,-5.5426,-5.5585,-5.5481,-5.5479,-5.5517,-5.5507,-5.5541,-5.5542,-5.5526,-5.5644,-5.5663,-5.5741,-5.5596,-5.5943,-5.5953,-5.5963,-5.6074,-5.6096,-5.6115,0,0,0,0,0,-5.5281,-5.5403,-5.5377,-5.5398,-5.5499,-5.559,-5.5602,-5.5583,-5.5524,-5.5581,-5.5588,-5.5541,-5.5721,-5.5656,-5.5677,-5.5758,-5.5938,-5.595,-5.5962,-5.6065,-5.6092,-5.6115,0,0,0,0,0,0,-5.5381,-5.5407,-5.5378,-5.5514,-5.555,-5.5575,-5.5647,-5.5612,-5.5665,-5.5653,-5.5625,-5.5634,-5.5752,-5.5766,-5.5694,-5.5903,-5.5819,-5.5836,-5.589,-5.5916,-5.5936,-5.5931,-5.5603,0,0,0,0,0,-5.5419,-5.5492,-5.551,-5.5628,-5.5648,-5.5645,-5.5683,-5.5665,-5.5701,-5.5716,-5.573,-5.5766,-5.5831,-5.5874,-5.5933,-5.6075,-5.6081,-5.6141,-5.6161,-5.6178,-5.6193,-5.6268,-5.6295,-5.6009,-5.6008,-5.6008,0,0,-5.5497,-5.5521,-5.5568,-5.5648,-5.5675,-5.575,-5.5658,-5.5741,-5.5796,-5.5728,-5.5835,-5.5847,-5.5885,-5.6012,-5.6069,-5.6027,-5.6273,-5.6193,-5.6207,-5.6213,-5.6284,-5.6311,-5.6335,-5.6017,-5.6015,-5.6014,0,0,-5.568,-5.5705,-5.5806,-5.5834,-5.5875,-5.5872,-5.5896,-5.5926,-5.5932,-5.6039,-5.5989,-5.6053,-5.6164,-5.6193,-5.6223,-5.6414,-5.6373,-5.6434,-5.6542,-5.6615,-5.6637,-5.6657,-5.6726,-5.6751,-5.6449,-5.6449,-5.645,0,-5.5772,-5.5885,-5.5862,-5.5949,-5.5985,-5.5927,-5.6029,-5.6056,-5.6115,-5.614,-5.6093,-5.6231,-5.6253,-5.6386,-5.6432,-5.6458,-5.6484,-5.6431,-5.6636,-5.6656,-5.6674,-5.6739,-5.6765,-5.6457,-5.6456,-5.6455,-5.6454,0,-5.5997,-5.6075,-5.6152,-5.6211,-5.6255,-5.6349,-5.6338,-5.6385,-5.6363,-5.6364,-5.6472,-5.6496,-5.6559,-5.6589,-5.6567,-5.6719,-5.6691,-5.6641,-5.6556,-5.6709,-5.677,-5.6794,-5.6467,-5.6464,-5.6462,-5.646,0,0,-5.6246,-5.629,-5.6319,-5.6345,-5.6385,-5.6444,-5.6534,-5.6597,-5.6638,-5.6679,-5.6754,-5.6849,-5.6802,-5.6835,-5.6815,-5.688,-5.703,-5.6821,-5.6821,-5.6859,-5.7198,-5.7236,-5.7266,-5.7002,-5.7007,-5.701,-5.7194,0,-5.643,-5.6588,-5.6569,-5.672,-5.6792,-5.6737,-5.6815,-5.6847,-5.685,-5.691,-5.6912,-5.698,-5.6913,-5.6933,-5.6994,-5.6999,-5.7097,-5.6985,-5.707,-5.7073,-5.7064,-5.7297,-5.7339,-5.7512,-5.7218,-5.7222,-5.7225,0,-5.6666,-5.6717,-5.6876,-5.6904,-5.6933,-5.7004,-5.706,-5.7118,-5.7152,-5.715,-5.7187,-5.7155,-5.7244,-5.7157,-5.7277,-5.7201,-5.7234,-5.7242,-5.7248,-5.7256,-5.7159,-5.7312,-5.7566,-5.7593,-5.7262,-5.7259,-5.7256,0,-5.6833,-5.694,-5.7049,-5.7073,-5.7109,-5.716,-5.7176,-5.7206,-5.7245,-5.7292,-5.7317,-5.7374,-5.7405,-5.7449,-5.7433,-5.7371,-5.7557,-5.7469,-5.7557,-5.7558,-5.76,-5.7598,-5.7864,-5.762,-5.7619,-5.7619,-5.7618,0,-5.7041,-5.714,-5.7124,-5.7192,-5.73,-5.7276,-5.7384,-5.7393,-5.742,-5.7487,-5.7441,-5.7504,-5.7479,-5.754,-5.7528,-5.7629,-5.7644,-5.7643,-5.7639,-5.7648,-5.7649,-5.767,-5.7658,-5.7626,-5.7624,-5.7623,-5.7622,0,-5.7246,-5.724,-5.7355,-5.7379,-5.7387,-5.7466,-5.7486,-5.7548,-5.7547,-5.7632,-5.765,-5.7648,-5.7717,-5.7705,-5.7781,-5.7773,-5.79,-5.788,-5.7889,-5.7885,-5.7974,-5.7966,-5.8264,-5.8302,-5.8033,-5.8036,-5.8038,0,-5.738,-5.7455,-5.7487,-5.753,-5.7551,-5.7619,-5.7658,-5.7636,-5.7678,-5.7723,-5.7779,-5.7844,-5.7896,-5.8008,-5.8013,-5.807,-5.8052,-5.8153,-5.8061,-5.8067,-5.8054,-5.8051,-5.8058,-5.8171,-5.8174,-5.8177,-5.8179,0,-5.7618,-5.7611,-5.767,-5.7729,-5.7777,-5.7822,-5.7861,-5.7898,-5.7879,-5.7929,-5.8,-5.8039,-5.8117,-5.8182,-5.8236,-5.8251,-5.8212,-5.8208,-5.8231,-5.8242,-5.8244,-5.8245,-5.794,-5.8201,-5.8199,-5.8197,-5.8196,-5.8195,-5.7792,-5.7856,-5.7889,-5.7956,-5.7984,-5.8022,-5.8081,-5.8087,-5.8147,-5.8209,-5.8192,-5.8272,-5.8302,-5.8371,-5.8392,-5.8453,-5.8416,-5.845,-5.8458,-5.8468,-5.8479,-5.8234,-5.8462,-5.8462,-5.8461,-5.8461,-5.846,0,-5.8028,-5.8047,-5.8109,-5.8166,-5.8219,-5.8178,-5.8219,-5.8265,-5.8337,-5.8369,-5.8421,-5.8501,-5.8564,-5.8573,-5.8631,-5.8679,-5.8662,-5.8695,-5.8692,-5.8696,-5.8508,-5.8483,-5.8707,-5.8707,-5.8707,-5.8707,-5.8707,-5.8707,-5.8158,-5.8264,-5.8261,-5.8379,-5.8396,-5.8476,-5.8503,-5.8537,-5.8562,-5.8655,-5.8707,-5.8713,-5.8735,-5.8795,-5.885,-5.885,-5.8874,-5.8914,-5.8908,-5.8734,-5.8709,-5.8686,-5.8661,-5.892,-5.892,-5.909,-5.9092,-5.9093]}]]